WZZ3860 UBBB-LHBP

Flight info

Callsign WZZ3860
Flight time N/A
Altitude 38000
Route AGDAM M747 LUSAL N319 ADEKI N644 LAGAS DCT SARPI UM10 OLUPO UL851 KARDE UN644 INB UL746 ODERO DCT OPT DCT IRLOX DCT AGMEL DCT LUVEL DCT KEZAL
Aircraft A320/M-SDE1E2E3FGIJ1J4RWXY/LB1

Departure

Time 2026-04-29 18:45
Airport Heydar Aliyev International Airport (UBBB)

Arrival

Time N/A
Airport Budapest Liszt Ferenc International Airport (LHBP)
Time Latitude Longitude Altitude Speed Heading
2026-04-29 18:27 40.46754 50.05312 15 ft 0 kts 229°
2026-04-29 18:35 40.46757 50.05316 15 ft 3 kts 229°
2026-04-29 18:35 40.46774 50.05342 15 ft 2 kts 229°
2026-04-29 18:35 40.46787 50.05365 15 ft 4 kts 238°
2026-04-29 18:35 40.46803 50.05388 16 ft 3 kts 188°
2026-04-29 18:36 40.46826 50.05391 18 ft 4 kts 177°
2026-04-29 18:36 40.46835 50.05390 17 ft 0 kts 178°
2026-04-29 18:39 40.46834 50.05390 15 ft 0 kts 183°
2026-04-29 18:39 40.46837 50.05354 15 ft 7 kts 277°
2026-04-29 18:39 40.46837 50.05283 15 ft 8 kts 268°
2026-04-29 18:39 40.46835 50.05201 15 ft 10 kts 268°
2026-04-29 18:40 40.46833 50.05108 15 ft 11 kts 270°
2026-04-29 18:40 40.46792 50.05042 15 ft 10 kts 193°
2026-04-29 18:40 40.46722 50.05014 15 ft 11 kts 203°
2026-04-29 18:40 40.46653 50.04971 15 ft 12 kts 206°
2026-04-29 18:41 40.46433 50.04767 15 ft 15 kts 207°
2026-04-29 18:41 40.46339 50.04702 15 ft 15 kts 208°
2026-04-29 18:42 40.46246 50.04637 15 ft 15 kts 221°
2026-04-29 18:42 40.46170 50.04551 14 ft 15 kts 161°
2026-04-29 18:42 40.46075 50.04621 14 ft 15 kts 145°
2026-04-29 18:42 40.45980 50.04703 14 ft 15 kts 144°
2026-04-29 18:43 40.45881 50.04758 15 ft 17 kts 197°
2026-04-29 18:43 40.45772 50.04702 15 ft 15 kts 205°
2026-04-29 18:43 40.45704 50.04588 15 ft 17 kts 249°
2026-04-29 18:43 40.45663 50.04428 14 ft 19 kts 251°
2026-04-29 18:44 40.45629 50.04278 13 ft 18 kts 256°
2026-04-29 18:44 40.45636 50.04135 13 ft 12 kts 319°
2026-04-29 18:44 40.45716 50.04108 12 ft 19 kts 347°
2026-04-29 18:44 40.46016 50.04010 14 ft 76 kts 346°
2026-04-29 18:45 40.46703 50.03794 10 ft 127 kts 346°
2026-04-29 18:45 40.47689 50.03490 164 ft 155 kts 345°
2026-04-29 18:45 40.48691 50.03207 928 ft 145 kts 345°
2026-04-29 18:45 40.49701 50.02899 1457 ft 157 kts 345°
2026-04-29 18:46 40.50837 50.02533 1776 ft 179 kts 345°
2026-04-29 18:46 40.52109 50.02119 2141 ft 199 kts 345°
2026-04-29 18:46 40.53539 50.01655 2567 ft 224 kts 345°
2026-04-29 18:46 40.55097 50.01159 3332 ft 235 kts 345°
2026-04-29 18:47 40.56730 50.00797 4204 ft 244 kts 358°
2026-04-29 18:47 40.58431 50.01232 5118 ft 258 kts 20°
2026-04-29 18:47 40.59923 50.02564 5910 ft 271 kts 44°
2026-04-29 18:47 40.60916 50.04711 6711 ft 282 kts 71°
2026-04-29 18:48 40.61121 50.07292 7492 ft 289 kts 96°
2026-04-29 18:48 40.60859 50.09946 7893 ft 294 kts 98°
2026-04-29 18:48 40.60574 50.12615 8000 ft 295 kts 98°
2026-04-29 18:48 40.60383 50.14386 8012 ft 295 kts 98°
2026-04-29 18:49 40.59995 50.17953 8015 ft 294 kts 98°
2026-04-29 18:49 40.59804 50.19721 8015 ft 294 kts 98°
2026-04-29 18:49 40.59429 50.23247 8015 ft 294 kts 98°
2026-04-29 18:49 40.59150 50.25913 8018 ft 294 kts 98°
2026-04-29 18:50 40.58962 50.27716 8017 ft 294 kts 98°
2026-04-29 18:50 40.58262 50.31142 8100 ft 295 kts 116°
2026-04-29 18:50 40.57351 50.33580 8918 ft 298 kts 118°
2026-04-29 18:50 40.56750 50.35204 9510 ft 300 kts 118°
2026-04-29 18:51 40.55837 50.37695 10302 ft 307 kts 118°
2026-04-29 18:51 40.54749 50.40211 10580 ft 327 kts 129°
2026-04-29 18:51 40.52531 50.42998 11264 ft 337 kts 150°
2026-04-29 18:51 40.50441 50.44365 12038 ft 336 kts 165°
2026-04-29 18:52 40.48162 50.44988 12852 ft 334 kts 179°
2026-04-29 18:52 40.46594 50.45029 13409 ft 335 kts 183°
2026-04-29 18:52 40.44279 50.45026 14179 ft 339 kts 183°
2026-04-29 18:52 40.41911 50.45021 14889 ft 342 kts 183°
2026-04-29 18:53 40.39518 50.45017 15604 ft 345 kts 183°
2026-04-29 18:53 40.37101 50.45017 16280 ft 349 kts 182°
2026-04-29 18:53 40.34658 50.45018 16968 ft 353 kts 183°
2026-04-29 18:53 40.32207 50.44856 17625 ft 354 kts 194°
2026-04-29 18:54 40.29989 50.43531 18268 ft 353 kts 219°
2026-04-29 18:54 40.28256 50.41241 18857 ft 356 kts 227°
2026-04-29 18:54 40.26609 50.38809 19475 ft 359 kts 233°
2026-04-29 18:54 40.25337 50.35985 20101 ft 364 kts 246°
2026-04-29 18:55 40.24635 50.32830 20729 ft 370 kts 260°
2026-04-29 18:55 40.24547 50.29445 21360 ft 375 kts 270°
2026-04-29 18:55 40.24661 50.26018 21958 ft 379 kts 270°
2026-04-29 18:55 40.24773 50.22562 22552 ft 382 kts 270°
2026-04-29 18:56 40.24885 50.19067 23151 ft 386 kts 270°
2026-04-29 18:56 40.24998 50.15539 23755 ft 390 kts 270°
2026-04-29 18:56 40.25112 50.11985 24280 ft 393 kts 270°
2026-04-29 18:56 40.25223 50.08399 24817 ft 395 kts 270°
2026-04-29 18:57 40.25328 50.04841 25354 ft 398 kts 270°
2026-04-29 18:57 40.25436 50.01216 25907 ft 400 kts 270°
2026-04-29 18:57 40.25548 49.97564 26449 ft 403 kts 270°
2026-04-29 18:57 40.25659 49.93888 26985 ft 405 kts 270°
2026-04-29 18:58 40.25769 49.90190 27524 ft 408 kts 270°
2026-04-29 18:58 40.25874 49.86469 28069 ft 410 kts 270°
2026-04-29 18:58 40.25978 49.82732 28603 ft 413 kts 270°
2026-04-29 18:58 40.26083 49.78967 29125 ft 415 kts 269°
2026-04-29 18:59 40.26188 49.75229 29631 ft 417 kts 269°
2026-04-29 18:59 40.26297 49.71424 30125 ft 419 kts 269°
2026-04-29 18:59 40.26404 49.67605 30544 ft 422 kts 269°
2026-04-29 18:59 40.26508 49.63754 30939 ft 424 kts 269°
2026-04-29 19:00 40.26611 49.59906 31449 ft 423 kts 269°
2026-04-29 19:00 40.26716 49.56067 31962 ft 422 kts 269°
2026-04-29 19:00 40.26819 49.52233 32493 ft 420 kts 269°
2026-04-29 19:00 40.26916 49.48416 33007 ft 419 kts 269°
2026-04-29 19:01 40.27010 49.44652 33526 ft 418 kts 269°
2026-04-29 19:01 40.27046 49.40854 34070 ft 417 kts 267°
2026-04-29 19:01 40.26986 49.37077 34516 ft 415 kts 265°
2026-04-29 19:01 40.26862 49.33303 34932 ft 414 kts 264°
2026-04-29 19:02 40.26711 49.29535 35354 ft 414 kts 264°
2026-04-29 19:02 40.26567 49.25779 35758 ft 413 kts 266°
2026-04-29 19:02 40.26732 49.22010 36142 ft 417 kts 276°
2026-04-29 19:02 40.27415 49.18318 36495 ft 421 kts 285°
2026-04-29 19:03 40.28374 49.14690 36871 ft 421 kts 285°
2026-04-29 19:03 40.29312 49.11108 37231 ft 421 kts 284°
2026-04-29 19:03 40.30250 49.07486 37606 ft 420 kts 284°
2026-04-29 19:03 40.31185 49.03853 37955 ft 421 kts 284°
2026-04-29 19:04 40.33049 48.96534 38036 ft 425 kts 284°
2026-04-29 19:04 40.34909 48.89173 38046 ft 426 kts 284°
2026-04-29 19:05 40.36775 48.81787 38038 ft 426 kts 284°
2026-04-29 19:05 40.38625 48.74459 38044 ft 426 kts 284°
2026-04-29 19:06 40.40487 48.67073 38040 ft 426 kts 284°
2026-04-29 19:07 40.43264 48.55987 38042 ft 426 kts 284°
2026-04-29 19:07 40.45100 48.48633 38036 ft 427 kts 284°
2026-04-29 19:08 40.46945 48.41225 38040 ft 427 kts 284°
2026-04-29 19:08 40.48788 48.33812 38039 ft 427 kts 284°
2026-04-29 19:09 40.50625 48.26379 38041 ft 427 kts 284°
2026-04-29 19:09 40.52452 48.18945 38042 ft 427 kts 284°
2026-04-29 19:10 40.54270 48.11562 38039 ft 427 kts 284°
2026-04-29 19:10 40.56105 48.04133 38042 ft 428 kts 284°
2026-04-29 19:11 40.58028 47.96724 38046 ft 430 kts 291°
2026-04-29 19:11 40.61310 47.90070 38047 ft 438 kts 304°
2026-04-29 19:12 40.65090 47.83843 38051 ft 439 kts 304°
2026-04-29 19:12 40.68893 47.77553 38055 ft 439 kts 304°
2026-04-29 19:13 40.72680 47.71243 38059 ft 439 kts 304°
2026-04-29 19:13 40.76465 47.64931 38061 ft 439 kts 304°
2026-04-29 19:14 40.80225 47.58664 38058 ft 439 kts 304°
2026-04-29 19:14 40.84010 47.52344 38057 ft 438 kts 304°
2026-04-29 19:15 40.87788 47.46022 38056 ft 438 kts 304°
2026-04-29 19:15 40.91552 47.39701 38056 ft 438 kts 304°
2026-04-29 19:16 40.95314 47.33371 38055 ft 437 kts 304°
2026-04-29 19:16 40.99043 47.27099 38052 ft 437 kts 304°
2026-04-29 19:17 41.02801 47.20770 38060 ft 437 kts 304°
2026-04-29 19:17 41.06538 47.14436 38062 ft 436 kts 303°
2026-04-29 19:18 41.10269 47.08098 38069 ft 436 kts 304°
2026-04-29 19:18 41.13980 47.01803 38070 ft 436 kts 304°
2026-04-29 19:19 41.17702 46.95468 38076 ft 435 kts 303°
2026-04-29 19:19 41.21425 46.89124 38082 ft 435 kts 303°
2026-04-29 19:20 41.25139 46.82782 38086 ft 435 kts 303°
2026-04-29 19:20 41.28614 46.76314 38093 ft 429 kts 294°
2026-04-29 19:21 41.30528 46.68933 38092 ft 420 kts 277°
2026-04-29 19:21 41.31585 46.61292 38092 ft 420 kts 277°
2026-04-29 19:22 41.32658 46.53644 38093 ft 421 kts 277°
2026-04-29 19:22 41.33726 46.46049 38095 ft 421 kts 277°
2026-04-29 19:23 41.34791 46.38394 38089 ft 421 kts 277°
2026-04-29 19:23 41.35841 46.30739 38085 ft 420 kts 277°
2026-04-29 19:24 41.36887 46.23079 38077 ft 420 kts 277°
2026-04-29 19:24 41.37921 46.15431 38079 ft 420 kts 277°
2026-04-29 19:25 41.38943 46.07836 38067 ft 419 kts 277°
2026-04-29 19:25 41.39974 46.00207 38065 ft 419 kts 277°
2026-04-29 19:26 41.41004 45.92567 38068 ft 418 kts 277°
2026-04-29 19:26 41.42025 45.84941 38066 ft 418 kts 277°
2026-04-29 19:27 41.43036 45.77320 38058 ft 417 kts 277°
2026-04-29 19:27 41.44041 45.69762 38060 ft 417 kts 277°
2026-04-29 19:28 41.45038 45.62149 38055 ft 417 kts 277°
2026-04-29 19:28 41.46026 45.54538 38056 ft 417 kts 277°
2026-04-29 19:29 41.47014 45.46932 38054 ft 416 kts 277°
2026-04-29 19:29 41.47983 45.39388 38050 ft 416 kts 276°
2026-04-29 19:30 41.48848 45.31775 38051 ft 414 kts 274°
2026-04-29 19:30 41.49447 45.24139 38051 ft 414 kts 272°
2026-04-29 19:31 41.49998 45.16488 38052 ft 414 kts 273°
2026-04-29 19:31 41.50589 45.08895 38053 ft 415 kts 273°
2026-04-29 19:32 41.51215 45.01243 38053 ft 415 kts 273°
2026-04-29 19:32 41.51836 44.93589 38057 ft 415 kts 273°
2026-04-29 19:33 41.52440 44.85925 38054 ft 415 kts 273°
2026-04-29 19:33 41.53036 44.78313 38056 ft 415 kts 273°
2026-04-29 19:34 41.53628 44.70652 38055 ft 415 kts 273°
2026-04-29 19:34 41.54212 44.62988 38058 ft 415 kts 273°
2026-04-29 19:35 41.54794 44.55316 38063 ft 415 kts 273°
2026-04-29 19:35 41.55376 44.47638 38063 ft 415 kts 273°
2026-04-29 19:36 41.55951 44.40019 38065 ft 415 kts 273°
2026-04-29 19:36 41.56522 44.32349 38059 ft 415 kts 273°
2026-04-29 19:37 41.57086 44.24668 38055 ft 415 kts 273°
2026-04-29 19:37 41.57221 44.16989 38053 ft 413 kts 268°
2026-04-29 19:38 41.57236 44.09312 38048 ft 413 kts 268°
2026-04-29 19:38 41.57253 44.01636 38055 ft 413 kts 268°
2026-04-29 19:39 41.57270 43.94015 38050 ft 413 kts 268°
2026-04-29 19:39 41.57278 43.86344 38053 ft 413 kts 268°
2026-04-29 19:40 41.57278 43.78681 38068 ft 413 kts 268°
2026-04-29 19:40 41.57274 43.71025 38056 ft 412 kts 268°
2026-04-29 19:41 41.57265 43.63421 38066 ft 412 kts 268°
2026-04-29 19:41 41.57251 43.55776 38072 ft 412 kts 268°
2026-04-29 19:42 41.57234 43.48133 38070 ft 411 kts 268°
2026-04-29 19:42 41.57212 43.40502 38081 ft 411 kts 268°
2026-04-29 19:43 41.57181 43.32928 38074 ft 411 kts 268°
2026-04-29 19:43 41.57151 43.25306 38083 ft 410 kts 268°
2026-04-29 19:44 41.57111 43.17693 38065 ft 410 kts 268°
2026-04-29 19:44 41.57066 43.10084 38068 ft 410 kts 268°
2026-04-29 19:45 41.57014 43.02533 38063 ft 409 kts 268°
2026-04-29 19:45 41.56971 42.94931 38069 ft 410 kts 268°